Content
SEND FEEDBACK

Daily
Averages
Monthly
Summary
United States of America

ENKA, NORTH CAROLINA


Home > North America > United States > North Carolina
Elevation: 2122 feet     Latitude: 35 33N     Longitude: 082 39W

WEATHER
 
SELECT A DAY
Number of Records: 225,611;   Date Range: 1/1/95 - 7/22/14
 
SHARE

PRINT THIS DATA

[ ← Previous Day ]
WEATHER ALMANAC - JANUARY 17, 2013
[ Next Day → ]
[ °C ]   °F
Weather ElementAverageHighLow
Temperature43 °F52 °F (12:54 am)34 °F (11:54 pm)
Dewpoint41.9 °F51.8 °F (12:45 am)28 °F (11:54 pm)
Humidity96.1 %100 % (12:45 am)79 % (11:54 pm)
Barometer29.95 in30.21 in (11:54 pm)29.81 in (3:54 pm)
Wind Speed11.8 mph20.7 mph (1:28 pm)
Wind Gust34.5 mph (6:54 pm)
Weather ElementAverage
Visibility6.2 mi
Wind DirectionWNW (295.5 °)

Weather ElementTotal
Precipitation3.78 in
Heating Degree Days22 (Base 65)
Averaged from 58 records on January 17, 2013
WEATHER CONDITIONS BREAKOUT
WIND DIRECTION BREAKOUT
WEATHER BY HOUR - JANUARY 17, 2013
[ °C ]   °F
Local TimeTemperatureDewpointHumidityBarometerVisibilityWind DirectionWind SpeedGust SpeedPrecipitationEventsConditions
12:45 AM51.8 °F51.8 °F100 %29.97 in9.0 miCalm0.01 inOvercast
12:54 AM52.0 °F51.1 °F97 %29.94 in9.0 miCalm0.01 inOvercast
1:15 AM51.8 °F51.8 °F100 %29.97 in3.0 miCalmOvercast
1:34 AM51.8 °F51.8 °F100 %29.98 in6.0 miCalmOvercast
1:54 AM52.0 °F51.1 °F97 %29.95 in10.0 miNNW (340°)3.5 mphOvercast
2:27 AM50.0 °F48.2 °F94 %29.99 in6.0 miNNW (340°)11.5 mph0.01 inRainRain
2:54 AM48.0 °F46.9 °F96 %29.95 in8.0 miNNW (340°)18.4 mph0.03 inRainLight Rain
3:02 AM48.2 °F46.4 °F93 %29.97 in10.0 miNNW (340°)17.3 mph0.00 inRainLight Rain
3:43 AM46.4 °F44.6 °F93 %29.97 in10.0 miNNW (340°)18.4 mph0.02 inRainLight Rain
3:54 AM46.9 °F45.0 °F93 %29.94 in10.0 miNNW (340°)19.6 mph0.02 inRainLight Rain
4:54 AM46.0 °F45.0 °F96 %29.94 in9.0 miNNW (340°)13.8 mph0.02 inRainLight Rain
5:54 AM46.0 °F44.1 °F93 %29.94 in10.0 miNorth (350°)12.7 mph0.03 inRainLight Rain
6:20 AM46.4 °F44.6 °F93 %29.96 in10.0 miNNW (340°)11.5 mph0.01 inRainLight Rain
6:54 AM46.0 °F44.1 °F93 %29.93 in10.0 miNorth (360°)8.1 mph0.03 inRainLight Rain
7:06 AM46.4 °F44.6 °F93 %29.96 in10.0 miNorth (360°)6.9 mph0.00 inRainLight Rain
7:13 AM46.4 °F44.6 °F93 %29.95 in9.0 miNorth (360°)8.1 mph0.00 inRainLight Rain
7:54 AM46.0 °F44.1 °F93 %29.94 in2.0 miNorth (360°)6.9 mph0.05 inRainRain
8:11 AM46.4 °F44.6 °F93 %29.96 in2.0 miNorth (360°)5.8 mph0.02 inRainRain
8:54 AM45.0 °F44.1 °F97 %29.94 in2.0 miNorth (360°)9.2 mph0.11 inRainRain
8:56 AM44.6 °F44.6 °F100 %29.96 in2.0 miNorth (360°)11.5 mph0.00 inRainRain
9:54 AM45.0 °F44.1 °F97 %29.93 in2.0 miNorth (360°)6.9 mph0.17 inRainRain
10:01 AM44.6 °F44.6 °F100 %29.95 in4.0 miNorth (360°)8.1 mph0.02 inRainRain
10:45 AM44.6 °F44.6 °F100 %29.91 in4.0 miNorth (350°)10.4 mph0.04 inRainLight Rain
10:48 AM44.6 °F44.6 °F100 %29.91 in2.5 miNNW (340°)12.7 mph0.04 inRainRain
10:54 AM45.0 °F44.1 °F97 %29.89 in2.0 miNNW (340°)13.8 mph0.07 inRainRain
11:02 AM44.6 °F44.6 °F100 %29.92 in1.2 miNNW (340°)9.2 mph0.05 inRainHeavy Rain
11:08 AM44.6 °F44.6 °F100 %29.91 in0.8 miNorth (360°)9.2 mph0.15 inRainHeavy Rain
11:16 AM44.6 °F44.6 °F100 %29.91 in1.5 miNorth (350°)8.1 mph0.25 inRainRain
11:20 AM44.6 °F44.6 °F100 %29.90 in3.0 miNorth (360°)8.1 mph0.26 inRainRain
11:54 AM45.0 °F44.1 °F97 %29.86 in2.5 miNorth (360°)8.1 mph0.38 inRainHeavy Rain
12:47 PM44.6 °F44.6 °F100 %29.84 in2.5 miNNW (340°)12.7 mph0.24 inRainRain
12:54 PM45.0 °F44.1 °F97 %29.82 in3.0 miNNW (340°)13.8 mph0.26 inRainHeavy Rain
1:03 PM44.6 °F44.6 °F100 %29.84 in2.5 miNNW (340°)15.0 mph0.04 inRainHeavy Rain
1:21 PM44.6 °F42.8 °F93 %29.83 in3.0 miNorth (360°)15.0 mph21.9 mph0.13 inRainRain
1:28 PM44.6 °F41.0 °F87 %29.83 in2.5 miNorth (350°)20.7 mph27.6 mphRainHeavy Rain
1:54 PM42.1 °F39.9 °F92 %29.82 in2.5 miNorth (350°)17.3 mph24.2 mph0.30 inRainHeavy Rain
2:54 PM39.9 °F39.0 °F97 %29.85 in2.5 miNW (320°)15.0 mph0.27 inRainHeavy Rain
3:11 PM39.2 °F39.2 °F100 %29.85 in3.0 miNorth (350°)10.4 mph0.07 inRainHeavy Rain
3:19 PM39.2 °F39.2 °F100 %29.87 in2.0 miNorth (350°)10.4 mph0.12 inRainHeavy Rain
3:54 PM39.9 °F39.0 °F97 %29.81 in2.0 miNorth (360°)15.0 mph0.28 inRainHeavy Rain
4:00 PM39.2 °F39.2 °F100 %29.82 in4.0 miNorth (10°)11.5 mph23.0 mph0.03 inRainRain
4:54 PM39.0 °F37.0 °F93 %29.83 in6.0 miNNW (330°)15.0 mph27.6 mph0.13 inRainLight Rain
5:17 PM39.2 °F37.4 °F93 %29.86 in6.0 miNNW (340°)15.0 mph23.0 mph0.00 inRainLight Rain
5:54 PM37.9 °F37.0 °F97 %29.91 in10.0 miNNW (340°)16.1 mph28.8 mph0.02 inRainLight Rain
6:18 PM37.4 °F37.4 °F100 %29.91 in8.0 miNNW (340°)19.6 mph26.5 mph0.01 inRainRain
6:54 PM37.0 °F37.0 °F100 %29.95 in10.0 miNNW (340°)20.7 mph34.5 mph0.03 inRainLight Rain
7:11 PM37.4 °F37.4 °F100 %29.96 in10.0 miNNW (340°)15.0 mph31.1 mph0.00 inRainLight Rain
7:54 PM37.0 °F37.0 °F100 %30.02 in10.0 miNNW (340°)9.2 mph0.01 inRainLight Rain
8:11 PM37.4 °F37.4 °F100 %30.04 in10.0 miNorth (10°)10.4 mph0.00 inRainLight Rain
8:47 PM37.4 °F37.4 °F100 %30.08 in10.0 miNorth (360°)12.7 mph18.4 mph0.02 inRainLight Rain
8:54 PM37.0 °F37.0 °F100 %30.10 in10.0 miNorth (10°)15.0 mph20.7 mph0.02 inOvercast
9:26 PM37.4 °F35.6 °F93 %30.12 in10.0 miNorth (10°)12.7 mphMostly Cloudy
9:52 PM35.6 °F35.6 °F100 %30.14 in10.0 miNorth (10°)13.8 mph21.9 mphMostly Cloudy
9:54 PM36.0 °F35.1 °F97 %30.15 in10.0 miNorth (360°)15.0 mph21.9 mphMostly Cloudy
10:14 PM35.6 °F32.0 °F87 %30.15 in10.0 miNorth (360°)12.7 mph32.2 mphOvercast
10:21 PM35.6 °F32.0 °F87 %30.15 in10.0 miNorth (360°)12.7 mph25.3 mphOvercast
10:54 PM35.1 °F30.9 °F85 %30.18 in10.0 miNorth (360°)13.8 mph26.5 mphOvercast
11:54 PM34.0 °F28.0 °F79 %30.21 in10.0 miNorth (350°)18.4 mph29.9 mphMostly Cloudy
Hourly data recorded from KAVL, located miles away from Enka, North Carolina







STORIES FROM OUR PARTNERS